Погода в Сумском Посаде

Россия / Республика Карелия     64°14′24″N   35°24′30″E
темп.,
°C
ветер,
м/с
пор.,
м/с
влажн.,
%
обл.,
%
осадки,
мм/ч
давл.,
гПа
погр.,
м
6 марта, сб
сб600:00−15зюз23960 0.0 101021
03:00−15зюз23970 0.0 101028
06:00−16зюз239739 0.0 100938
09:00−15юз359632 0.0 1007137
12:00−9ююз48916 0.0 1005294
15:00−8ююз5118550 0.0 1001486
18:00−8ю5138799 0.0 997584
21:00−8ююв61488100 0.0 993696
7 марта, вс
вс700:00−7юв61387100 0.1 989777
03:00−7юв61393100 0.7 988826
06:00−9вюв61292100 0.8 987669
09:00−11в61392100 1.1 990587
12:00−11в61191100 0.2 994580
15:00−10всв51188100 0.3 998605
18:00−12св4129198 0.0 1002461
21:00−17ссв489696 0.0 1005221
8 марта, пн
пн800:00−21с489895 0.0 1008207
03:00−23с499791 0.0 1011241
06:00−24ссв4109782 0.0 1012262
09:00−22ссв499781 0.0 1014316
12:00−20с4795100 0.0 1015400
15:00−20с4795100 0.0 1016398
18:00−24с339981 0.0 101776
21:00−26ссв239840 0.0 101820
9 марта, вт
вт900:00−28с12970 0.0 101919
03:00−28зсз12980 0.0 102019
06:00−28зюз229827 0.0 101919
09:00−24з239317 0.0 101984
12:00−18з478562 0.0 1020246
15:00−15сз368875 0.0 1021338
18:00−18ссз23950 0.0 102121
21:00−20зсз22980 0.0 102220
10 марта, ср
ср1000:00−21з23960 0.0 102221
03:00−21з34895 0.0 102284
06:00−20з388488 0.0 1022167
09:00−18з498394 0.0 1022236
12:00−14з488233 0.0 1022298
15:00−11з487927 0.0 1020370
18:00−13зюз398430 0.0 1019233
21:00−13зюз4118147 0.0 1018311